Regional Weather Roundup
Issued by NWS Sioux Falls, SD

Home | Current Version | Previous Version | Text Only | Print | Product List | Glossary On
Versions: 1 2 3 4 5 6 7 8 9 10 11 12 13 14 15 16 17 18 19 20 21 22 23 24 25 26 27 28 29 30 31 32 33 34 35 36 37 38 39 40 41 42 43 44 45 46 47 48 49 50
000
ASUS43 KFSD 012210
RWRFSD

WEATHER ROUNDUP FOR SE SOUTH DAKOTA/SW MINNESOTA/NW IOWA
NATIONAL WEATHER SERVICE SIOUX FALLS SD
500 PM CDT TUE SEP 01 2015

NOTE: "FAIR" INDICATES FEW OR NO CLOUDS BELOW 12,000 FEET WITH NO
SIGNIFICANT WEATHER AND OR OBSTRUCTIONS TO VISIBILITY.


SDZ038>040-050-052>070-012300-
SOUTHEAST SOUTH DAKOTA

CITY           SKY/WX    TMP DP  RH WIND       PRES   REMARKS
BROOKINGS      CLOUDY    73  68  83 CALM      29.91F
CHAMBERLAIN    SUNNY     83  67  59 SE15      29.83S
HURON          MOSUNNY   85  61  44 SE15      29.80F
MADISON        FAIR      73  73 100 S9        29.91R
MITCHELL       PTSUNNY   82  71  69 SE12      29.83R
SIOUX FALLS    CLOUDY    79  68  69 CALM      29.88R
WINNER         FAIR      88  59  37 SE14G23   29.83F
YANKTON        CLOUDY    82  70  65 SE5       29.82F
$$

MNZ071-072-080-081-089-090-097-098-012300-
SOUTHWEST MINNESOTA

CITY           SKY/WX    TMP DP  RH WIND       PRES   REMARKS
FAIRMONT       CLOUDY    82  68  61 S9        29.90S
JACKSON        CLOUDY    81  72  74 S6        29.91F
LUVERNE        CLOUDY    79  70  73 SE3       29.89F
MARSHALL       CLOUDY    81  70  69 SE8       29.88S
MONTEVIDEO     CLOUDY    75  73  94 S9G17     29.86S
PIPESTONE      CLOUDY    79  70  73 S7        29.89F
REDWOOD FALLS  CLOUDY    84  73  69 SE7       29.86S
TRACY          CLOUDY    82  74  77 S6        29.88S
WINDOM         CLOUDY    82  70  65 S7        29.90S
WORTHINGTON    CLOUDY    81  70  69 S8        29.90S
$$

IAZ001>003-012>014-020>022-031-032-NEZ013-014-SDZ071-012300-
NORTHWEST IOWA

CITY           SKY/WX    TMP DP  RH WIND       PRES   REMARKS
CHEROKEE       CLOUDY    83  73  72 S9        29.89F
DENISON        CLOUDY    84  73  70 S15G24    29.91S
ESTHERVILLE    CLOUDY    81  73  76 S9        29.91S
LE MARS        PTSUNNY   82  73  74 S9G16     29.88F
ORANGE CITY    PTSUNNY   82  72  69 S10       29.89F
SHELDON        CLOUDY    82  72  69 S10       29.88S
SIOUX CITY     MOSUNNY   86  73  65 SE13G20   29.87F
SPENCER        CLOUDY    84  70  62 S14       29.91S
STORM LAKE     CLOUDY    81  73  78 S8        29.93F
$$

ABBREVIATIONS USED IN REMARKS
   TC - TEMPERATURE IN CELSIUS
  WCI - WIND CHILL INDEX
   HX - HEAT INDEX
  VSB - VISIBILITY



USA.gov is the U.S. government's official web portal to all federal, state and local government web resources and services.